Location: Fauquembergues
(50.6005°N, 2.0987°E)
Time: 08:42:28
(UTC+00:00)

CENTAUR R/B - Pass Details

Date: 14 July 2020
Orbit: 756 x 1432 km, 63.5° (Epoch: 11 August)

Event Time Altitude Azimuth Distance (km) Brightness Sun altitude
Rises 03:09:56 0° 176° (S) 3,398 4.9 -6.3°
Reaches altitude 10° 03:12:39 10° 163° (SSE) 2,551 4.4 -6.0°
Maximum altitude 03:17:23 25° 110° (ESE) 1,854 4.3 -5.4°
Drops below altitude 10° 03:22:43 10° 59° (ENE) 2,924 6.7 -4.8°
Sets 03:26:04 0° 47° (NE) 4,009 9.0 -4.4°
